• En España
  • Lista de países
  • Para 7 días
  • Temperatura del agua
  • Mapa Satelital
  • El tiempo en el mapa
  • Informadores
  • user-avatar
    Iniciar sesión

    Tiempo cada hora Sofia

    Hoy, 15 Noviembre, Jueves

    Tiempo Temperatura Precipitaciones Viento Presión Humedad
    00:00 +8°C° 0 mm 1 mps 715 mmHg 84%
    01:00 +8°C° 0 mm 1 mps 715 mmHg 84%
    02:00 +7°C° 0 mm 2 mps 715 mmHg 85%
    03:00 +7°C° 0.1 mm 2 mps 715 mmHg 86%
    04:00 +6°C° 0.1 mm 2 mps 715 mmHg 86%
    05:00 +5°C° 0.1 mm 3 mps 715 mmHg 87%
    06:00 +6°C° 0 mm 2 mps 715 mmHg 86%
    07:00 +6°C° 0 mm 2 mps 715 mmHg 85%
    08:00 +5°C° 0 mm 2 mps 715 mmHg 84%
    09:00 +6°C° 0 mm 2 mps 715 mmHg 77%
    10:00 +8°C° 0 mm 3 mps 716 mmHg 69%
    11:00 +9°C° 0 mm 3 mps 716 mmHg 62%
    12:00 +9°C° 0 mm 3 mps 715 mmHg 57%
    13:00 +10°C° 0 mm 3 mps 715 mmHg 53%
    14:00 +10°C° 0 mm 3 mps 715 mmHg 48%
    15:00 +9°C° 0 mm 2 mps 715 mmHg 52%
    16:00 +8°C° 0 mm 2 mps 715 mmHg 56%
    17:00 +8°C° 0 mm 1 mps 714 mmHg 60%
    18:00 +7°C° 0 mm 1 mps 715 mmHg 64%
    19:00 +6°C° 0 mm 1 mps 715 mmHg 69%
    20:00 +5°C° 0 mm 1 mps 715 mmHg 73%
    21:00 +5°C° 0 mm 1 mps 715 mmHg 75%
    22:00 +4°C° 0 mm 1 mps 715 mmHg 77%
    23:00 +3°C° 0 mm 0 mps 715 mmHg 79%

    Mañana, 16 Noviembre, Viernes

    Tiempo Temperatura Precipitaciones Viento Presión Humedad
    00:00 +3°C° 0 mm 0 mps 715 mmHg 80%
    01:00 +3°C° 0 mm 0 mps 715 mmHg 81%
    02:00 +2°C° 0 mm 0 mps 716 mmHg 82%
    03:00 +2°C° 0 mm 0 mps 716 mmHg 83%
    04:00 +2°C° 0 mm 0 mps 716 mmHg 84%
    05:00 +2°C° 0 mm 0 mps 716 mmHg 85%
    06:00 +3°C° 0 mm 1 mps 716 mmHg 85%
    07:00 +3°C° 0 mm 1 mps 716 mmHg 85%
    08:00 +3°C° 0 mm 1 mps 717 mmHg 85%
    09:00 +5°C° 0 mm 1 mps 717 mmHg 76%
    10:00 +5°C° 0 mm 2 mps 717 mmHg 68%
    11:00 +7°C° 0 mm 2 mps 717 mmHg 59%
    12:00 +7°C° 0 mm 2 mps 717 mmHg 56%
    13:00 +8°C° 0 mm 3 mps 717 mmHg 54%
    14:00 +8°C° 0 mm 3 mps 717 mmHg 52%
    15:00 +7°C° 0 mm 3 mps 717 mmHg 57%
    16:00 +6°C° 0 mm 2 mps 717 mmHg 62%
    17:00 +4°C° 0 mm 2 mps 717 mmHg 67%
    18:00 +4°C° 0 mm 2 mps 717 mmHg 73%
    19:00 +3°C° 0 mm 2 mps 717 mmHg 78%
    20:00 +3°C° 0 mm 1 mps 717 mmHg 84%
    21:00 +2°C° 0 mm 1 mps 718 mmHg 86%
    22:00 +2°C° 0 mm 1 mps 718 mmHg 88%
    23:00 +2°C° 0 mm 1 mps 718 mmHg 90%

    Pasado mañana, 17 Noviembre, Sábado

    Tiempo Temperatura Precipitaciones Viento Presión Humedad
    00:00 +1°C° 0 mm 1 mps 718 mmHg 90%
    01:00 +1°C° 0 mm 1 mps 718 mmHg 91%
    02:00 +1°C° 0 mm 1 mps 718 mmHg 92%
    03:00 0°C° 0 mm 1 mps 718 mmHg 92%
    04:00 0°C° 0 mm 1 mps 718 mmHg 92%
    05:00 0°C° 0 mm 1 mps 718 mmHg 92%
    06:00 0°C° 0 mm 1 mps 718 mmHg 91%
    07:00 0°C° 0 mm 1 mps 718 mmHg 90%
    08:00 0°C° 0 mm 1 mps 718 mmHg 88%
    09:00 -1°C° 0 mm 2 mps 718 mmHg 79%
    10:00 +2°C° 0 mm 2 mps 718 mmHg 70%
    11:00 +4°C° 0 mm 2 mps 718 mmHg 61%
    12:00 +4°C° 0 mm 2 mps 718 mmHg 59%
    13:00 +5°C° 0 mm 2 mps 718 mmHg 58%
    14:00 +5°C° 0 mm 2 mps 718 mmHg 56%
    15:00 +4°C° 0 mm 2 mps 717 mmHg 62%
    16:00 +3°C° 0 mm 2 mps 717 mmHg 67%
    17:00 +2°C° 0 mm 2 mps 717 mmHg 72%
    18:00 +2°C° 0 mm 2 mps 717 mmHg 76%
    19:00 +1°C° 0 mm 2 mps 717 mmHg 80%
    20:00 -1°C° 0 mm 2 mps 718 mmHg 83%
    21:00 +1°C° 0 mm 1 mps 718 mmHg 85%
    22:00 +1°C° 0 mm 1 mps 718 mmHg 86%
    23:00 +1°C° 0 mm 1 mps 717 mmHg 87%

    18 Noviembre, Domingo

    Tiempo Temperatura Precipitaciones Viento Presión Humedad
    00:00 +1°C° 0 mm 1 mps 717 mmHg 88%
    01:00 +1°C° 0 mm 1 mps 717 mmHg 88%
    02:00 +1°C° 0 mm 1 mps 717 mmHg 88%
    03:00 +1°C° 0 mm 1 mps 717 mmHg 89%
    04:00 +1°C° 0 mm 1 mps 717 mmHg 89%
    05:00 0°C° 0 mm 1 mps 716 mmHg 90%
    06:00 +1°C° 0 mm 1 mps 716 mmHg 89%
    07:00 +1°C° 0 mm 1 mps 716 mmHg 88%
    08:00 +1°C° 0 mm 1 mps 716 mmHg 87%
    09:00 +3°C° 0 mm 1 mps 716 mmHg 81%
    10:00 +4°C° 0 mm 1 mps 716 mmHg 74%
    11:00 +4°C° 0 mm 2 mps 716 mmHg 67%
    12:00 +5°C° 0 mm 2 mps 715 mmHg 65%
    13:00 +6°C° 0 mm 2 mps 715 mmHg 63%
    14:00 +6°C° 0 mm 2 mps 714 mmHg 61%
    15:00 +5°C° 0 mm 2 mps 713 mmHg 65%
    16:00 +5°C° 0 mm 1 mps 713 mmHg 70%
    17:00 +4°C° 0 mm 1 mps 712 mmHg 75%
    18:00 +4°C° 0 mm 1 mps 712 mmHg 77%
    19:00 +3°C° 0 mm 1 mps 712 mmHg 80%
    20:00 +3°C° 0 mm 1 mps 711 mmHg 82%
    21:00 +3°C° 0 mm 1 mps 711 mmHg 82%
    22:00 +3°C° 0 mm 1 mps 711 mmHg 83%
    23:00 +3°C° 0 mm 1 mps 711 mmHg 83%

    19 Noviembre, Lunes

    Tiempo Temperatura Precipitaciones Viento Presión Humedad
    00:00 +3°C° 0 mm 1 mps 710 mmHg 83%
    01:00 +3°C° 0 mm 1 mps 710 mmHg 82%
    02:00 +3°C° 0 mm 1 mps 710 mmHg 82%
    03:00 +3°C° 0 mm 1 mps 709 mmHg 83%
    04:00 +3°C° 0 mm 1 mps 709 mmHg 84%
    05:00 +3°C° 0 mm 1 mps 708 mmHg 84%
    06:00 +3°C° 0 mm 1 mps 708 mmHg 85%
    07:00 +2°C° 0 mm 1 mps 708 mmHg 86%
    08:00 +2°C° 0 mm 1 mps 708 mmHg 87%
    09:00 +4°C° 0 mm 1 mps 708 mmHg 80%
    10:00 +6°C° 0 mm 1 mps 709 mmHg 72%
    11:00 +7°C° 0 mm 2 mps 709 mmHg 65%
    12:00 +7°C° 0 mm 2 mps 709 mmHg 64%
    13:00 +8°C° 0 mm 2 mps 708 mmHg 62%
    14:00 +9°C° 0 mm 2 mps 708 mmHg 61%
    15:00 +8°C° 0 mm 2 mps 708 mmHg 67%
    16:00 +7°C° 0 mm 2 mps 708 mmHg 72%
    17:00 +6°C° 0 mm 2 mps 708 mmHg 77%
    18:00 +6°C° 0 mm 1 mps 708 mmHg 81%
    19:00 +5°C° 0 mm 1 mps 708 mmHg 84%
    20:00 +5°C° 0 mm 1 mps 709 mmHg 88%
    21:00 +5°C° 0 mm 1 mps 709 mmHg 89%
    22:00 +4°C° 0 mm 1 mps 709 mmHg 91%
    23:00 +4°C° 0 mm 1 mps 709 mmHg 92%

    20 Noviembre, Martes

    Tiempo Temperatura Precipitaciones Viento Presión Humedad
    00:00 +4°C° 0 mm 1 mps 709 mmHg 92%
    01:00 +4°C° 0 mm 1 mps 709 mmHg 93%
    02:00 +4°C° 0 mm 1 mps 709 mmHg 93%
    03:00 +4°C° 0 mm 1 mps 709 mmHg 93%
    04:00 +4°C° 0 mm 1 mps 709 mmHg 93%
    05:00 +4°C° 0 mm 1 mps 709 mmHg 93%
    06:00 +4°C° 0 mm 2 mps 709 mmHg 91%
    07:00 +4°C° 0 mm 2 mps 709 mmHg 90%
    08:00 +5°C° 0 mm 2 mps 709 mmHg 89%
    09:00 +5°C° 0.1 mm 3 mps 709 mmHg 83%
    10:00 +8°C° 0.1 mm 3 mps 709 mmHg 77%
    11:00 +10°C° 0.1 mm 3 mps 709 mmHg 70%
    12:00 +10°C° 0.6 mm 3 mps 708 mmHg 73%
    13:00 +10°C° 0.6 mm 3 mps 708 mmHg 76%
    14:00 +10°C° 0.6 mm 3 mps 707 mmHg 78%
    15:00 +10°C° 0.1 mm 3 mps 707 mmHg 81%
    16:00 +9°C° 0.1 mm 3 mps 707 mmHg 83%
    17:00 +9°C° 0.1 mm 3 mps 707 mmHg 86%
    18:00 +9°C° 0.2 mm 3 mps 706 mmHg 87%
    19:00 +9°C° 0.2 mm 3 mps 706 mmHg 88%
    20:00 +9°C° 0.2 mm 3 mps 706 mmHg 88%
    21:00 +9°C° 0.1 mm 3 mps 706 mmHg 88%
    22:00 +9°C° 0.1 mm 3 mps 706 mmHg 88%
    23:00 +9°C° 0.1 mm 3 mps 705 mmHg 88%
    Mostrar más